Location: Mascot Post Office (historical)
(40.2645°N, 99.5462°W)
Time: 17:02:24
(UTC+00:00)

Cosmos 1697 Rocket - Pass Details

Date: 14 July 2020
Orbit: 834 x 842 km, 71.0° (Epoch: 04 August)

Event Time Altitude Azimuth Distance (km) Brightness Sun altitude
Rises 08:56:34 0° 335° (NNW) 3,393 6.3 -20.9°
Reaches altitude 10° 08:59:01 10° 335° (NNW) 2,454 5.5 -20.6°
Maximum altitude 09:04:39 82° 249° (WSW) 847 2.6 -20.0°
Enters shadow 09:08:43 19° 163° (SSE) 1,866 4.2 -19.6°
